FLOCK 2EP-2

Last updated on Sun May 29 2016 17:36:37 GMT+0000 (Coordinated Universal Time)

1 41481U 98067JB 16150.31934940 .00005624 00000-0 87635-4 0 9994 2 41481 51.6424 152.0845 0001994 302.3121 165.6619 15.55527668 1849
UTC large
Height (km)
Speed (km/s)
/
Latitude / Longitude
Inclination (degrees)
Orbital Period (minutes)
Azimuth
Elevation
Range (km)
Doppler Factor

Next 0 passes for location: London (51.5072 / 0.1276)

Sorry there are no passes over London.